Stations météo

réclame
Mon MeteoGroup
Semmerzake, Belgique (6428): Température de l'air & dewpoint: 19.09.2017 22:00:00 - 25.09.2017 22:00:00 (CEST)Semmerzake, Belgique (6428): Vitesse du vent & gusts: 19.09.2017 22:00:00 - 25.09.2017 22:00:00 (CEST)Semmerzake, Belgique (6428): Direction du vent: 19.09.2017 22:00:00 - 25.09.2017 22:00:00 (CEST)Semmerzake, Belgique (6428): reduced air pressure: 19.09.2017 22:00:00 - 25.09.2017 22:00:00 (CEST)Semmerzake, Belgique (6428): visibility: 19.09.2017 22:00:00 - 25.09.2017 22:00:00 (CEST)
Date & Time tt [°C] td [°C] ff [km/h] ff [knt] fx [km/h] fx [knt] dd ppp [hPa] vv [km]
25.09.2017 22:00:00 12,8 12,8 4 2 11 6 N 1020,8 5
25.09.2017 21:00:00 13,3 13,3 4 2 11 6 N 1020,7 7
25.09.2017 20:00:00 14,7 13,8 4 2 - - N 1020,5 10
25.09.2017 19:00:00 15,8 13,9 4 2 7 4 N 1020,2 12
25.09.2017 18:00:00 17,1 14,1 4 2 11 6 N 1019,8 13
25.09.2017 17:00:00 18,0 14,1 7 4 - - ENE 1019,7 17
25.09.2017 16:00:00 18,1 14,4 7 4 18 10 ENE 1019,6 14
25.09.2017 15:00:00 18,7 14,8 7 4 18 10 E 1019,7 16
25.09.2017 14:00:00 18,1 14,9 11 6 - - E 1020,0 12
25.09.2017 13:00:00 18,1 15,4 7 4 11 6 E 1020,1 17
25.09.2017 12:00:00 16,6 15,5 7 4 11 6 N 1020,3 8
25.09.2017 11:00:00 14,3 - 7 4 - - E - 6
25.09.2017 10:00:00 - - - - - - - - -
25.09.2017 09:00:00 9,8 - 7 4 14 8 E - 2,5
25.09.2017 08:00:00 8,9 - 4 2 - - N - 1,6
25.09.2017 07:00:00 9,1 - 4 2 11 6 N - 1,5
25.09.2017 06:00:00 8,6 - 4 2 11 6 N - 1,2
25.09.2017 05:00:00 9,8 - 7 4 - - E - 1,9
25.09.2017 04:00:00 9,9 - 4 2 18 10 N - 1,9
25.09.2017 03:00:00 11,1 - 7 4 14 8 E - 3,3
25.09.2017 02:00:00 11,1 - 7 4 - - E - 3,8
25.09.2017 01:00:00 11,8 - 4 2 11 6 N - 4,9
25.09.2017 00:00:00 13,0 13,0 7 4 14 8 E 1021,7 6
24.09.2017 23:00:00 13,1 13,1 7 4 - - E 1021,6 8
24.09.2017 22:00:00 13,5 12,8 7 4 11 6 N 1021,7 11
24.09.2017 21:00:00 14,4 12,3 4 2 14 8 N 1021,5 19
24.09.2017 20:00:00 15,8 12,5 4 2 - - N 1021,3 20
24.09.2017 19:00:00 17,6 12,8 7 4 14 8 N 1021,1 20
24.09.2017 18:00:00 19,0 12,7 7 4 18 10 E 1021,0 20
24.09.2017 17:00:00 19,3 12,7 11 6 - - ESE 1021,2 20
24.09.2017 16:00:00 19,5 12,8 7 4 14 8 ESE 1021,5 20
24.09.2017 15:00:00 19,2 13,7 7 4 18 10 SE 1021,8 19
24.09.2017 14:00:00 18,6 15,5 7 4 - - ESE 1022,1 15
24.09.2017 13:00:00 17,3 14,7 7 4 14 8 ESE 1022,2 14
24.09.2017 12:00:00 15,5 13,7 4 2 7 4 N 1022,6 19
24.09.2017 11:00:00 13,5 13,5 4 2 - - N 1022,7 5
24.09.2017 10:00:00 11,6 - 4 2 7 4 N - 4,2
24.09.2017 09:00:00 9,5 - 7 4 14 8 SSE - 2,9
24.09.2017 08:00:00 6,9 - 7 4 - - ESE - 1,9
24.09.2017 07:00:00 6,5 - 4 2 14 8 N - 1,7
24.09.2017 06:00:00 5,8 - 4 2 11 6 N - 1,9
24.09.2017 05:00:00 7,5 - 4 2 - - N - 5
24.09.2017 04:00:00 7,9 - 4 2 11 6 N - 8
24.09.2017 03:00:00 7,5 - 4 2 7 4 N - 9
24.09.2017 02:00:00 7,8 - 4 2 - - N - 13
24.09.2017 01:00:00 8,3 8,3 4 2 7 4 N 1022,7 17
24.09.2017 00:00:00 10,2 9,3 4 2 7 4 N 1022,8 20
23.09.2017 23:00:00 10,7 9,5 4 2 - - N 1023,0 20
23.09.2017 22:00:00 11,6 10,2 7 4 7 4 ESE 1023,1 20
23.09.2017 21:00:00 12,5 11,4 4 2 11 6 N 1023,0 20
23.09.2017 20:00:00 13,8 11,7 4 2 - - N 1022,7 20
23.09.2017 19:00:00 15,1 12,7 7 4 11 6 ENE 1022,7 20
23.09.2017 18:00:00 16,3 12,6 4 2 14 8 N 1022,7 20
23.09.2017 17:00:00 16,5 12,5 7 4 - - ENE 1022,7 19
23.09.2017 16:00:00 16,5 13,4 4 2 18 10 N 1023,2 20
23.09.2017 15:00:00 16,3 12,9 4 2 14 8 N 1023,8 19
23.09.2017 14:00:00 16,1 12,4 4 2 - - N 1024,2 14
23.09.2017 13:00:00 15,7 12,1 4 2 11 6 N 1024,5 17
23.09.2017 12:00:00 15,1 12,7 7 4 14 8 E 1024,7 19
23.09.2017 11:00:00 13,6 13,6 4 2 - - N 1024,9 8
23.09.2017 10:00:00 12,3 - 4 2 4 2 N - 5
23.09.2017 09:00:00 9,4 - 4 2 7 4 N - 1,7
23.09.2017 08:00:00 7,0 - 4 2 - - N - 2,2
23.09.2017 07:00:00 6,6 - 4 2 4 2 N - 1,6
23.09.2017 06:00:00 6,5 - 4 2 4 2 N - 0,3
23.09.2017 05:00:00 6,7 - 4 2 - - N - 0,5
23.09.2017 04:00:00 6,7 - 4 2 4 2 N - 2,9
23.09.2017 03:00:00 7,8 - 4 2 7 4 N - 0,1
23.09.2017 02:00:00 7,8 - 4 2 - - N - 2,5
23.09.2017 01:00:00 8,5 - 4 2 4 2 N - 4,2
23.09.2017 00:00:00 9,0 - 4 2 4 2 N - 9
22.09.2017 23:00:00 10,0 - 4 2 - - N - 9
22.09.2017 22:00:00 11,0 - 4 2 4 2 N - 19
22.09.2017 21:00:00 12,1 12,1 4 2 7 4 N 1023,5 20
22.09.2017 20:00:00 13,1 13,1 4 2 - - N 1023,0 20
22.09.2017 19:00:00 15,1 12,8 7 4 18 10 NNW 1022,2 20
22.09.2017 18:00:00 16,3 12,7 11 6 18 10 N 1021,8 20
22.09.2017 17:00:00 16,7 13,6 11 6 - - NNW 1021,7 20
22.09.2017 16:00:00 16,7 14,0 11 6 22 12 NNW 1021,6 20
22.09.2017 15:00:00 17,0 14,2 7 4 22 12 NW 1021,3 20
22.09.2017 14:00:00 16,4 14,7 7 4 - - W 1021,5 19
22.09.2017 13:00:00 15,3 - 7 4 14 8 WSW - 11
22.09.2017 12:00:00 14,8 - 7 4 11 6 WSW - 10
22.09.2017 11:00:00 13,5 - 7 4 - - SSW - 10
22.09.2017 10:00:00 12,0 - 4 2 7 4 N - 8
22.09.2017 09:00:00 11,3 - 4 2 7 4 N - 7
22.09.2017 08:00:00 11,1 - 4 2 - - N - 8
22.09.2017 07:00:00 10,6 - 4 2 7 4 N - 9
22.09.2017 06:00:00 10,5 - 4 2 11 6 N - 10
22.09.2017 05:00:00 10,3 - 7 4 - - SSW - 13
22.09.2017 04:00:00 10,0 - 4 2 7 4 N - 14
22.09.2017 03:00:00 10,4 - 7 4 7 4 S - 17
22.09.2017 02:00:00 11,1 11,1 4 2 - - N 1019,3 20
22.09.2017 01:00:00 11,8 11,8 7 4 11 6 SSE 1019,2 19
22.09.2017 00:00:00 12,6 11,8 7 4 11 6 SSE 1019,2 20
21.09.2017 23:00:00 13,1 11,7 7 4 - - SSE 1019,2 20
21.09.2017 22:00:00 13,6 11,9 7 4 11 6 SSE 1019,2 20
21.09.2017 21:00:00 14,0 12,0 4 2 11 6 N 1019,2 20
21.09.2017 20:00:00 14,6 12,0 4 2 - - N 1018,7 20
21.09.2017 19:00:00 15,7 12,3 7 4 22 12 S 1018,3 20
21.09.2017 18:00:00 17,0 12,3 14 8 22 12 S 1018,1 20
21.09.2017 17:00:00 17,3 12,2 11 6 - - S 1018,2 20
21.09.2017 16:00:00 17,2 11,8 14 8 29 16 S 1018,3 20
21.09.2017 15:00:00 17,7 11,5 14 8 29 16 SSW 1018,7 20
21.09.2017 14:00:00 17,1 12,3 18 10 - - S 1019,1 20
21.09.2017 13:00:00 16,2 12,3 18 10 25 14 S 1019,6 20
21.09.2017 12:00:00 14,6 11,8 11 6 22 12 S 1019,8 20
21.09.2017 11:00:00 13,4 11,7 14 8 - - S 1020,0 20
21.09.2017 10:00:00 11,4 11,1 11 6 18 10 S 1020,0 20
21.09.2017 09:00:00 10,1 - 11 6 18 10 S - 20
21.09.2017 08:00:00 8,6 - 11 6 - - SSE - 15
21.09.2017 07:00:00 8,8 - 7 4 14 8 SSE - 14
21.09.2017 06:00:00 9,3 - 7 4 14 8 SSE - 16
21.09.2017 05:00:00 9,3 - 11 6 - - S - 17
21.09.2017 04:00:00 9,6 - 7 4 14 8 SSE - 18
21.09.2017 03:00:00 9,8 - 7 4 14 8 S - 20
21.09.2017 02:00:00 9,5 - 7 4 - - S - 20
21.09.2017 01:00:00 10,8 - 11 6 14 8 S - 20
21.09.2017 00:00:00 11,3 - 11 6 18 10 S - 20
20.09.2017 23:00:00 12,0 - 7 4 - - SSE - 20
20.09.2017 22:00:00 12,7 12,7 7 4 11 6 SSE 1020,5 20
20.09.2017 21:00:00 12,8 12,7 4 2 11 6 N 1020,6 20
20.09.2017 20:00:00 14,1 13,1 7 4 - - SSW 1020,3 20
20.09.2017 19:00:00 14,5 13,8 4 2 18 10 N 1020,2 20
20.09.2017 18:00:00 15,2 12,9 11 6 22 12 SSW 1020,3 20
20.09.2017 17:00:00 15,4 12,8 11 6 - - SSW 1020,7 20
20.09.2017 16:00:00 15,6 12,6 14 8 25 14 SSW 1021,0 20
20.09.2017 15:00:00 15,5 12,9 14 8 25 14 SSW 1021,0 20
20.09.2017 14:00:00 15,3 12,9 11 6 - - SW 1021,2 19
20.09.2017 13:00:00 15,3 13,5 11 6 18 10 SSW 1021,5 20
20.09.2017 12:00:00 13,9 13,3 11 6 22 12 SW 1021,7 15
20.09.2017 11:00:00 12,2 - 11 6 - - SW - 14
20.09.2017 10:00:00 10,4 - 11 6 18 10 SW - 13
20.09.2017 09:00:00 9,1 - 7 4 14 8 SSW - 9
20.09.2017 08:00:00 8,0 - 7 4 - - SSW - 8
20.09.2017 07:00:00 7,6 - 7 4 11 6 SSW - 6
20.09.2017 06:00:00 7,8 - 7 4 11 6 SSW - 5
20.09.2017 05:00:00 8,1 - 7 4 - - SSW - 5
20.09.2017 04:00:00 8,8 - 7 4 11 6 SSW - 5
20.09.2017 03:00:00 9,5 - 4 2 7 4 N - 5
20.09.2017 02:00:00 10,3 - 4 2 - - N - 7
20.09.2017 01:00:00 10,5 - 4 2 7 4 N - 6
20.09.2017 00:00:00 11,1 - 4 2 7 4 N - 11
19.09.2017 23:00:00 11,1 - 4 2 - - N - 13
19.09.2017 22:00:00 10,8 - 4 2 11 6 N - 17

tt = Température de l'air
td = dewpoint
ff = Vitesse du vent
fx = gusts
dd = Direction du vent
ppp = reduced air pressure
vv = visibility

stations d'obs. à proximité